STARLINK-37634, 69028

Orbit data source: Space-Track

STARLINK-37634, 69028 is a payload satellite owned by SpaceX/Seattle (US) in SSO that was launched on Wed, 06 May 2026 UTC via an FALCON 9 launch vehicle from the Air Force Western Test Range (AFWTR). Payload-class satellites include a variety of spacecraft equipped with specific instruments for various scientific and technological missions. These include communications satellites like Starlink; space stations such as the ISS; scientific satellites like the Hubble; Earth observation satellites from companies like Planet Labs, Umbra, and HawkEye 360; GPS; miniature CubeSats for education and research; and military/defense satellites.

Loading next visibility...
Identifier
69028, 2026-101D
Orbit
SSO
Country
Flag of USUS
Related business
Manufacturer
SpaceX/Seattle
Mission
Operational spacecraft
Bus & Motor
STARLINK V2MO, Unknown motor
Mass
575 kg wet, ~530 kg dry
Launch date (UTC)
2026-05-06 (1 month ago)
Launch vehicle
FALCON 9
Launch site
Air Force Western Test Range (AFWTR)
Object type
Payload
Rocket body
Debris
Shape & HBR
Unknown shape, 14.5 m
Radar Cross Section
Large (>1 m²)

Expand to show TLE details & history
Last TLE update: 12 hours ago

TLE from 12 hours ago
0 STARLINK-37634
1 69028U 26101D   26168.56069808  .00010737  00000-0  33439-3 0  9993
2 69028  97.2838  23.4594 0001534  85.4358 274.7060 15.33449813  6639
Epoch: 2026-06-17T13:27Z
TLE epoch observation values (Epoch: 2026-06-17T13:27:24.314Z)
Latitude
Longitude
-84.20853°
Altitude
468.555 km
Speed
7.632 km/s
True Right ascension
01h 33m 50s
True Declination
0° 00' 00"
Sunlit
Object was in daylight at epoch
Visualization orbit readout
Latitude
Unknown
Longitude
Unknown
Altitude
Unknown
Speed
Unknown
Apparent Right ascension
Unknown
Apparent Declination
Unknown
Sunlit
N/A
Visualization observer readout
Local Sidereal Time
12:17:17
Azimuth
Unknown
Elevation
Unknown
Doppler factor
Unknown
Orbital elements
Apogee altitude
463.521 km
Perigee altitude
461.422 km
Semi-major axis
6,840.609 km
Eccentricity
0.00015
Inclination
97.2838°
RAAN
23.4594°
Arg. of periapsis
85.4358°
True anomaly
274.68848°
Mean anomaly
274.706°
Eccentric anomaly
274.69724°
Mean motion
3.8362 °/min
Orbital period
93.84 mins
BSTAR
0.00033439
Loading maneuver chart data...
Computing Atmospheric mass density...
Loading historical data...
Loading historical data...
Loading historical data...
Loading historical data...
Loading historical data...
Loading historical data...
Loading historical data...

Documentation

Showing up to 5 results
|